Regional Weather Roundup
Issued by NWS

Home | Current Version | Previous Version | Graphics & Text | Print | Product List | Glossary On
Versions: 1 2 3 4 5 6 7 8 9 10 11 12 13 14 15 16 17 18 19 20 21 22 23 24 25 26 27 28 29 30 31 32 33 34 35 36 37 38 39 40 41 42 43 44 45 46 47 48 49 50
912
ASUS45 KPSR 060210
RWRAZ

ARIZONA HOURLY REGIONAL WEATHER ROUNDUP
NATIONAL WEATHER SERVICE PHOENIX AZ
700 PM MST FRI FEB 05 2016

NOTE: FAIR INDICATES FEW OR NO CLOUDS BELOW 12,000 FEET WITH NO
SIGNIFICANT WEATHER AND/OR OBSTRUCTIONS TO VISIBILITY.

AZZ001>003-036-060300-
NORTHWEST ARIZONA

CITY           SKY/WX    TMP DP  RH WIND       PRES   REMARKS
BULLHEAD CITY  CLEAR     59  27  29 N18       30.38R
KINGMAN        CLEAR     46  22  38 NE15G26   30.41R
$$

AZZ004>008-015-016-018-060300-
NORTH CENTRAL ARIZONA

CITY           SKY/WX    TMP DP  RH WIND       PRES   REMARKS
GRAND CANYON   CLEAR     29  14  53 NE5       30.45S WCI  24
WILLIAMS       CLEAR     28  10  47 E8        30.47R WCI  20
PRESCOTT       CLEAR     42  14  32 S5        30.40R
FLAGSTAFF      PTCLDY    27  12  53 E9        30.42S WCI  18
PAYSON         CLEAR     39   9  28 E7G15     30.40R WCI  34
PAGE           CLEAR     35  22  58 CALM      30.50R
$$

AZZ009>014-017-060300-
NORTHEAST ARIZONA

CITY           SKY/WX    TMP DP  RH WIND       PRES   REMARKS
WINSLOW        PTCLDY    35  14  42 W6        30.46R WCI  30
SAINT JOHNS    PTCLDY    29  14  53 W6        30.40R WCI  23
WINDOW ROCK    PTCLDY    26   0  32 N7        30.43R WCI  18
SHOW LOW       CLEAR     27  14  59 CALM      30.42R
$$

AZZ023-060300-
GREATER PHOENIX AREA

CITY           SKY/WX    TMP DP  RH WIND       PRES   REMARKS
PHOENIX        CLEAR     66  15  14 CALM      30.28R
BUCKEYE        CLEAR     55  19  24 N8        30.31S
GLENDALE       PTCLDY    64  14  14 NW13      30.30R
LUKE AFB       CLEAR     61  18  19 N13       30.28R
DEER VALLEY    CLEAR     60  17  18 NE8       30.29R
SCOTTSDALE     CLEAR     62  15  16 N5        30.31R
MESA-FALCON    CLEAR    N/A N/A N/A N9        30.28R
CHANDLER       CLEAR     61  16  17 N7        30.28R
$$

AZZ027-028-060300-
SOUTHWEST MARICOPA COUNTY AND PINAL COUNTY

CITY           SKY/WX    TMP DP  RH WIND       PRES   REMARKS
CASA GRANDE    CLEAR     57  16  19 N8        30.28R
GILA BEND      FAIR      58  22  25 CALM      30.28R
$$

AZZ503-504-507>509-060300-
SOUTHEAST ARIZONA

CITY           SKY/WX    TMP DP  RH WIND       PRES   REMARKS
TUCSON         CLEAR     57  16  20 CALM      30.27R
DAVIS-MONTHAN  CLEAR     55  17  22 NE6       30.25R
RYAN FIELD     CLEAR     59  21  23 W6        30.27R
NOGALES        CLEAR     53  12  19 NE15      30.25R
SIERRA VISTA   CLEAR     44  10  24 SE7       30.31S
DOUGLAS        CLEAR     48  11  22 E12       30.30R
SAFFORD        CLEAR     46  16  30 NE6       30.30R
$$

AZZ020-021-025-026-031-060300-
SOUTHWEST ARIZONA

CITY           SKY/WX    TMP DP  RH WIND       PRES   REMARKS
YUMA           CLEAR     65  21  18 N9        30.30R
$$

CAZ031-033-041-043-047-048-061-060300-
SOUTHERN CALIFORNIA

CITY           SKY/WX    TMP DP  RH WIND       PRES   REMARKS
DOWNTOWN L.A.  CLEAR     70  31  23 CALM      30.24R
L.A. AIRPORT   PTCLDY    69  36  29 SW3       30.25R
SAN DIEGO      CLEAR     66  43  43 CALM      30.25R
BURBANK        CLEAR     69  19  15 W3        30.26R
ONTARIO        CLEAR     65  18  16 E8        30.27R
RIVERSIDE      CLEAR     67  18  15 N10       30.29R
PALM SPRINGS   CLEAR     67  21  17 NW7       30.35R
EL CENTRO NAS  PTCLDY    65  26  23 CALM      30.33R
IMPERIAL       CLEAR     63  28  26 NW3       30.31R
BLYTHE         CLEAR     62  22  21 N9        30.32R
NEEDLES        CLEAR     61  22  22 N16       30.37R
$$

NVZ020-UTZ003-060300-
SOUTHERN NEVADA-UTAH

CITY           SKY/WX    TMP DP  RH WIND       PRES   REMARKS
LAS VEGAS      PTCLDY    55  23  28 NE9       30.40R
SALT LAKE CITY PTCLDY    32  26  78 CALM      30.54R
$$

NMZ009-TXZ055-060300-
NEW MEXICO-WEST TEXAS

CITY           SKY/WX    TMP DP  RH WIND       PRES   REMARKS
ALBUQUERQUE    CLEAR     37   6  27 N10G18    30.40R WCI  30
EL PASO        CLEAR     43  -1  16 N10       30.37R
$$


........................KEY........................
SKY/WX - SKY CONDITION/WEATHER
TMP    - TEMPERATURE IN FAHRENHEIT
DP     - DEW POINT IN FAHRENHEIT
RH     - RELATIVE HUMIDITY IN PERCENT
WIND   - DIRECTION AND SPEED IN MILES PER HOUR (MPH)
VRB    - VARIABLE WIND DIRECTION
PRES   - MEAN SEA LEVEL PRESSURE IN INCHES OF MERCURY
         F - FALLING PRESSURE   R - RISING PRESSURE
         S - STEADY PRESSURE
VSB    - VISIBILITY IN MILES
HX     - HEAT INDEX IN FAHRENHEIT
WCI    - WIND CHILL INDEX IN FAHRENHEIT
TC     - TEMPERATURE IN CELSIUS WHICH IS ALSO KNOWN AS
         TEMPERATURE IN CENTIGRADE
AFB    - AIR FORCE BASE
         LUKE AFB IS LUKE AIR FORCE BASE
         DAVIS-MONTHAN IS DAVIS-MONTHAN AIR FORCE BASE
NAS    - NAVAL AIR STATION
         EL CENTRO NAS IS EL CENTRO NAVAL AIR STATION
N/A    - NOT AVAILABLE





USA.gov is the U.S. government's official web portal to all federal, state and local government web resources and services.